Selawik, AK

3:02 AM AKDT on March 24, 2017 (GMT -0800)
Selawik

Weather History for PASK - April, 2013

Change the Weather History Date:

Friday, April 19, 2013

  Actual Average Record
Temperature  
Mean Temperature 0 °F -  
Max Temperature 12 °F 23 °F 37 °F (2014)
Min Temperature -11 °F 8 °F -20 °F (2002)
Degree Days  
Heating Degree Days 64    
Moisture  
Dew Point -4 °F    
Average Humidity 86    
Maximum Humidity 100    
Minimum Humidity 65    
Precipitation  
Precipitation 0.00 in - - ()
Sea Level Pressure  
Sea Level Pressure 30.59 in    
Wind  
Wind Speed 3 mph (NNE)    
Max Wind Speed 7 mph    
Max Gust Speed -    
Visibility 9 miles    
Events      
Averages and records for this station are not official NWS values.
T = Trace of Precipitation, MM = Missing Value Source: NWS Daily Summary

Daily Weather History Graph

Daily Weather History Graph

Search for Another Location

Airport or City:

Trip Planner

Search our weather history database for the weather conditions in past years. The results will help you decide how hot, cold, wet, or windy it might be!

Date:

Astronomy

Apr. 19, 2013 Rise Set
Actual Time 6:38 AM AKDT 10:41 PM AKDT
Civil Twilight 5:30 AM AKDT 11:51 PM AKDT
Nautical Twilight 2:59 AM AKDT 2:06 AM AKDT
Astronomical Twilight Sun does not rise Sun does not rise
Moon 2:06 PM AKDT (4/19) 5:37 AM AKDT (4/19)
Length of Visible Light 18h 20m
Length of Day
16h 03m
Waxing Gibbous, 63% of the Moon is Illuminated
Apr 19
Waxing Gibbous
Apr 25
Full
May 2
Last Quarter
May 9
New
May 17
First Quarter

Hourly Weather History & Observations

Time (AKDT) Temp. Windchill Dew Point Humidity Pressure Visibility Wind Dir Wind Speed Gust Speed Precip Events Conditions
12:16 AM -0.4 °F -12.0 °F -2.2 °F 92% 30.59 in 8.0 mi SW 5.8 mph - N/A   Clear
12:36 AM -2.2 °F -12.5 °F -7.6 °F 78% 30.59 in 10.0 mi SW 4.6 mph - N/A   Clear
12:56 AM -2.2 °F -15.6 °F -2.2 °F 100% 30.59 in 10.0 mi WSW 6.9 mph - N/A   Clear
1:16 AM -2.2 °F -15.6 °F -7.6 °F 78% 30.59 in 10.0 mi WSW 6.9 mph - N/A   Clear
1:36 AM -4.0 °F -16.3 °F -7.6 °F 85% 30.59 in 10.0 mi West 5.8 mph - N/A   Clear
1:56 AM -2.2 °F -12.5 °F -5.8 °F 85% 30.59 in 7.0 mi West 4.6 mph - N/A   Clear
2:16 AM -5.8 °F -14.5 °F -9.4 °F 84% 30.60 in 10.0 mi West 3.5 mph - N/A   Clear
2:56 AM -5.8 °F -14.5 °F -9.4 °F 84% 30.60 in 10.0 mi NW 3.5 mph - N/A   Clear
3:16 AM -5.8 °F -16.7 °F -9.4 °F 84% 30.61 in 10.0 mi NW 4.6 mph - N/A   Clear
3:36 AM -5.8 °F - -5.8 °F 100% 30.62 in 10.0 mi Calm Calm - N/A   Clear
3:56 AM -5.8 °F -14.5 °F -11.2 °F 77% 30.62 in 10.0 mi NW 3.5 mph - N/A   Clear
4:16 AM -7.6 °F - -9.4 °F 92% 30.63 in 10.0 mi Calm Calm - N/A   Clear
4:36 AM -9.4 °F - -16.6 °F 71% 30.62 in 10.0 mi Calm Calm - N/A   Clear
4:56 AM -7.6 °F - -9.4 °F 92% 30.62 in 10.0 mi Calm Calm - N/A   Clear
5:16 AM -7.6 °F - -16.6 °F 65% 30.63 in 10.0 mi Calm Calm - N/A   Clear
5:36 AM -7.6 °F - -7.6 °F 100% 30.63 in 10.0 mi Calm Calm - N/A   Mostly Cloudy
5:56 AM -9.4 °F - -18.4 °F 65% 30.63 in 10.0 mi Calm Calm - N/A   Overcast
6:16 AM -9.4 °F - -13.0 °F 84% 30.63 in 10.0 mi Calm Calm - N/A   Overcast
6:36 AM -9.4 °F - -14.8 °F 77% 30.63 in 8.0 mi Calm Calm - N/A   Overcast
6:56 AM -9.4 °F - -11.2 °F 92% 30.63 in 5.0 mi Calm Calm - N/A   Overcast
7:16 AM -9.4 °F - -14.8 °F 77% 30.63 in 7.0 mi Calm Calm - N/A   Overcast
7:36 AM -11.2 °F - -14.8 °F 84% 30.63 in 1.2 mi Calm Calm - N/A   Overcast
7:56 AM -11.2 °F - -14.8 °F 84% 30.63 in 1.0 mi Calm Calm - N/A   Overcast
8:16 AM -11.2 °F - -11.2 °F 100% 30.63 in 1.5 mi Calm Calm - N/A   Overcast
8:36 AM -11.2 °F -20.6 °F -14.8 °F 84% 30.63 in 5.0 mi NE 3.5 mph - N/A   Overcast
8:56 AM -9.4 °F -18.6 °F -11.2 °F 92% 30.62 in 10.0 mi NE 3.5 mph - N/A   Mostly Cloudy
9:16 AM -11.2 °F -20.6 °F -14.8 °F 84% 30.62 in 10.0 mi NE 3.5 mph - N/A   Clear
9:36 AM -11.2 °F -20.6 °F -11.2 °F 100% 30.63 in 10.0 mi NE 3.5 mph - N/A   Partly Cloudy
9:56 AM -9.4 °F - -13.0 °F 84% 30.63 in 10.0 mi Calm Calm - N/A   Clear
10:16 AM -9.4 °F - -11.2 °F 92% 30.63 in 10.0 mi Calm Calm - N/A   Clear
10:36 AM -7.6 °F - -9.4 °F 92% 30.64 in 10.0 mi Calm Calm - N/A   Scattered Clouds
10:56 AM -7.6 °F - -9.4 °F 92% 30.63 in 10.0 mi Calm Calm - N/A   Mostly Cloudy
11:16 AM -5.8 °F -14.5 °F -7.6 °F 92% 30.62 in 10.0 mi NE 3.5 mph - N/A   Partly Cloudy
11:36 AM -5.8 °F - -7.6 °F 92% 30.63 in 10.0 mi Calm Calm - N/A   Clear
11:56 AM -4.0 °F - -5.8 °F 92% 30.62 in 10.0 mi Calm Calm - N/A   Clear
12:16 PM -2.2 °F - -4.0 °F 92% 30.63 in 10.0 mi Calm Calm - N/A   Clear
12:36 PM -2.2 °F - -5.8 °F 85% 30.63 in 10.0 mi Calm Calm - N/A   Clear
12:56 PM -0.4 °F - -2.2 °F 92% 30.62 in 10.0 mi Calm Calm - N/A   Clear
1:16 PM -0.4 °F - -2.2 °F 92% 30.62 in 10.0 mi Calm Calm - N/A   Clear
1:36 PM 1.4 °F - -0.4 °F 92% 30.62 in 10.0 mi Calm Calm - N/A   Clear
1:56 PM 1.4 °F - 1.4 °F 100% 30.61 in 10.0 mi Calm Calm - N/A   Clear
2:16 PM 3.2 °F - 1.4 °F 92% 30.61 in 10.0 mi Calm Calm - N/A   Clear
2:36 PM 3.2 °F - 1.4 °F 92% 30.60 in 10.0 mi Calm Calm - N/A   Clear
2:56 PM 6.8 °F - 1.4 °F 79% 30.61 in 10.0 mi Calm Calm - N/A   Clear
3:16 PM 6.8 °F - 3.2 °F 85% 30.60 in 10.0 mi Calm Calm - N/A   Clear
3:36 PM 8.6 °F - 6.8 °F 92% 30.59 in 10.0 mi Calm Calm - N/A   Clear
3:56 PM 8.6 °F - 5.0 °F 85% 30.58 in 10.0 mi Calm Calm - N/A   Clear
4:16 PM 8.6 °F - 6.8 °F 92% 30.58 in 10.0 mi Calm Calm - N/A   Clear
4:36 PM 10.4 °F - 6.8 °F 85% 30.58 in 10.0 mi Calm Calm - N/A   Clear
4:56 PM 10.4 °F - 6.8 °F 85% 30.57 in 10.0 mi Calm Calm - N/A   Clear
5:16 PM 10.4 °F 2.2 °F 6.8 °F 85% 30.56 in 10.0 mi East 4.6 mph - N/A   Clear
5:36 PM 10.4 °F - 6.8 °F 85% 30.56 in 10.0 mi Calm Calm - N/A   Clear
5:56 PM 10.4 °F - 6.8 °F 85% 30.56 in 10.0 mi Calm Calm - N/A   Clear
6:16 PM 10.4 °F 4.0 °F 8.6 °F 92% 30.55 in 10.0 mi East 3.5 mph - N/A   Clear
6:36 PM 12.2 °F - 6.8 °F 79% 30.54 in 10.0 mi Calm Calm - N/A   Clear
6:56 PM 12.2 °F 6.1 °F 6.8 °F 79% 30.54 in 10.0 mi ENE 3.5 mph - N/A   Clear
7:16 PM 10.4 °F 2.2 °F 6.8 °F 85% 30.53 in 10.0 mi NE 4.6 mph - N/A   Clear
7:36 PM 10.4 °F 0.8 °F 5.0 °F 79% 30.53 in 10.0 mi NNE 5.8 mph - N/A   Clear
7:56 PM 10.4 °F 0.8 °F 6.8 °F 85% 30.52 in 10.0 mi NNE 5.8 mph - N/A   Clear
8:16 PM 8.6 °F -1.3 °F 5.0 °F 85% 30.52 in 10.0 mi NE 5.8 mph - N/A   Clear
8:36 PM 8.6 °F 0.1 °F 5.0 °F 85% 30.52 in 10.0 mi NE 4.6 mph - N/A   Clear
8:56 PM 8.6 °F 0.1 °F 3.2 °F 79% 30.51 in 10.0 mi NNE 4.6 mph - N/A   Clear
9:16 PM 8.6 °F 0.1 °F 3.2 °F 79% 30.50 in 10.0 mi NE 4.6 mph - N/A   Clear
9:36 PM 8.6 °F 2.0 °F 3.2 °F 79% 30.51 in 10.0 mi NE 3.5 mph - N/A   Clear
9:56 PM 6.8 °F -0.1 °F 1.4 °F 79% 30.51 in 10.0 mi NE 3.5 mph - N/A   Clear
10:16 PM 6.8 °F -0.1 °F 3.2 °F 85% 30.49 in 10.0 mi NE 3.5 mph - N/A   Clear
10:36 PM 6.8 °F -0.1 °F -0.4 °F 72% 30.49 in 10.0 mi NE 3.5 mph - N/A   Clear
10:56 PM 6.8 °F -2.0 °F 3.2 °F 85% 30.49 in 10.0 mi ENE 4.6 mph - N/A   Clear
11:16 PM 6.8 °F -2.0 °F 1.4 °F 79% 30.49 in 10.0 mi NE 4.6 mph - N/A   Clear
11:36 PM 3.2 °F -6.2 °F -0.4 °F 85% 30.49 in 10.0 mi NE 4.6 mph - N/A   Clear
11:56 PM 5.0 °F -4.1 °F -0.4 °F 78% 30.48 in 10.0 mi NNE 4.6 mph - N/A   Clear